Weather in Bisert

Russia / Sverdlovsk Oblast     56°51′44″N   59°03′02″E
temp.,
°C
wind,
m/s
gust,
m/s
humid.,
%
clouds,
%
prec.,
mm/h
press.,
hPa
HPBL,
m
11 may, tue
tue1123:00+11se29545 0.0 1025182
02:00+9sse22584 0.0 102614
05:00+8se215715 0.0 102711
08:00+13sse2343100 0.0 1027212
11:00+18sse2230100 0.0 1027712
14:00+21wsw0127100 0.0 10271392
17:00+21wnw1230100 0.0 10271694
20:00+17w22505 0.0 102712
12 may, wed
wed1223:00+13w11595 0.0 102810
02:00+12wnw11711 0.0 102910
05:00+10nne119028 0.0 102910
08:00+15n127299 0.0 1029257
11:00+19nw23544 0.0 10291072
14:00+22nw34370 0.0 10282002
17:00+23nw44306 0.0 10271943
20:00+18nw23475 0.0 102857
13 may, thu
thu1323:00+13nw115925 0.0 102910
02:00+12nw116495 0.0 102910
05:00+11nw117179 0.0 102910
08:00+16nw12555 0.0 1029234
11:00+21nnw233722 0.0 10281259
14:00+24nnw33305 0.0 10271842
17:00+24nw23315 0.0 10271951
20:00+20nw22505 0.0 102713
14 may, fri
fri1423:00+15wnw116211 0.0 102711
02:00+14ne00675 0.0 102711
05:00+13ssw11703 0.0 102810
08:00+19sw125217 0.0 1028207
11:00+24wsw24364 0.0 10271596
14:00+25wsw44305 0.0 10252316
17:00+26w35295 0.0 10242649
20:00+21wnw11505 0.0 102412
15 may, sat
sat1523:00+16wsw1164100 0.0 102411
02:00+15ssw22657 0.0 102420
05:00+14ssw226841 0.0 102536
08:00+19sw365346 0.0 1024267
11:00+24wsw463777 0.0 10231112
14:00+26wsw573038 0.0 10222183
17:00+26w582899 0.0 10202263
20:00